Bluewater, NM

7:01 PM MST on February 06, 2016 (GMT -0700)
Grants-Milan Municipal

Weather History for KGNT - March, 2013

Change the Weather History Date:

Tuesday, March 26, 2013

  Actual Average Record
Temperature  
Mean Temperature 40 °F -  
Max Temperature 65 °F 61 °F 82 °F (1971)
Min Temperature 16 °F 26 °F 12 °F (1970)
Degree Days  
Heating Degree Days 24    
Moisture  
Dew Point 4 °F    
Average Humidity 24    
Maximum Humidity 46    
Minimum Humidity 8    
Precipitation  
Precipitation 0.00 in - - ()
Sea Level Pressure  
Sea Level Pressure 30.12 in    
Wind  
Wind Speed 6 mph (SSW)    
Max Wind Speed 18 mph    
Max Gust Speed 26 mph    
Visibility 10 miles    
Events      
Averages and records for this station are not official NWS values.
T = Trace of Precipitation, MM = Missing Value Source: NWS Daily Summary

Daily Weather History Graph

Daily Weather History Graph

Search for Another Location

Airport or City:

Trip Planner

Search our weather history database for the weather conditions in past years. The results will help you decide how hot, cold, wet, or windy it might be!

Date:

Astronomy

Mar. 26, 2013 Rise Set
Actual Time 7:06 AM MDT 7:28 PM MDT
Civil Twilight 6:40 AM MDT 7:53 PM MDT
Nautical Twilight 6:11 AM MDT 8:23 PM MDT
Astronomical Twilight 5:40 AM MDT 8:54 PM MDT
Moon 7:07 PM MDT (3/26) 6:24 AM MDT (3/26)
Length of Visible Light 13h 12m
Length of Day
12h 22m
Waxing Gibbous, 99% of the Moon is Illuminated
Mar 26
Waxing Gibbous
Mar 27
Full
Apr 2
Last Quarter
Apr 10
New
Apr 18
First Quarter

Hourly Weather History & Observations

Time (MDT) Temp. Windchill Dew Point Humidity Pressure Visibility Wind Dir Wind Speed Gust Speed Precip Events Conditions
12:15 AM 27.9 °F - 2.1 °F 33% 30.20 in 10.0 mi Calm Calm - N/A   Clear
12:35 AM 27.1 °F 21.8 °F 2.7 °F 35% 30.20 in 10.0 mi North 4.6 mph - N/A   Clear
12:55 AM 26.2 °F 17.1 °F 1.4 °F 34% 30.19 in 10.0 mi WNW 9.2 mph - N/A   Clear
1:15 AM 23.5 °F 16.4 °F 0.7 °F 37% 30.19 in 10.0 mi NNW 5.8 mph - N/A   Clear
1:35 AM 26.2 °F 18.6 °F 2.1 °F 36% 30.20 in 10.0 mi NW 6.9 mph - N/A   Clear
1:55 AM 25.9 °F 18.2 °F 2.8 °F 37% 30.19 in 10.0 mi NW 6.9 mph - N/A   Clear
2:15 AM 22.8 °F 14.5 °F -0.6 °F 36% 30.19 in 10.0 mi NW 6.9 mph - N/A   Clear
2:35 AM 22.5 °F 16.3 °F 0.9 °F 39% 30.18 in 10.0 mi North 4.6 mph - N/A   Clear
2:55 AM 22.1 °F 17.4 °F 0.7 °F 39% 30.18 in 10.0 mi WNW 3.5 mph - N/A   Clear
3:15 AM 20.8 °F 16.0 °F -1.3 °F 38% 30.18 in 10.0 mi NNW 3.5 mph - N/A   Clear
3:35 AM 20.1 °F 15.2 °F 0.1 °F 42% 30.18 in 10.0 mi WNW 3.5 mph - N/A   Clear
3:55 AM 19.2 °F - 0.3 °F 44% 30.16 in 10.0 mi Calm Calm - N/A   Clear
4:15 AM 18.1 °F 12.9 °F -2.0 °F 41% 30.16 in 10.0 mi NW 3.5 mph - N/A   Clear
4:35 AM 19.4 °F 14.3 °F -2.9 °F 37% 30.16 in 10.0 mi NW 3.5 mph - N/A   Clear
4:55 AM 19.0 °F 13.9 °F -2.9 °F 38% 30.16 in 10.0 mi NNW 3.5 mph - N/A   Clear
5:15 AM 18.7 °F - -1.3 °F 42% 30.16 in 10.0 mi Calm Calm - N/A   Clear
5:35 AM 18.1 °F - -2.0 °F 41% 30.16 in 10.0 mi Calm Calm - N/A   Clear
5:55 AM 18.1 °F - 0.5 °F 46% 30.16 in 10.0 mi Calm Calm - N/A   Clear
6:15 AM 18.1 °F - 0.3 °F 46% 30.17 in 10.0 mi Calm Calm - N/A   Clear
6:35 AM 18.5 °F 13.3 °F 0.1 °F 45% 30.17 in 10.0 mi South 3.5 mph - N/A   Clear
6:55 AM 17.2 °F - -2.9 °F 41% 30.17 in 10.0 mi Calm Calm - N/A   Clear
7:15 AM 16.2 °F - -4.4 °F 40% 30.18 in 10.0 mi Calm Calm - N/A   Clear
7:35 AM 17.2 °F - -4.0 °F 39% 30.18 in 10.0 mi Calm Calm - N/A   Clear
7:55 AM 22.5 °F - -1.5 °F 35% 30.18 in 10.0 mi Calm Calm - N/A   Clear
8:15 AM 26.2 °F - 1.0 °F 34% 30.18 in 10.0 mi Calm Calm - N/A   Clear
8:35 AM 31.5 °F - 4.3 °F 32% 30.18 in 10.0 mi Calm Calm - N/A   Clear
8:55 AM 38.8 °F 33.8 °F 7.3 °F 27% 30.18 in 10.0 mi ESE 6.9 mph - N/A   Clear
9:15 AM 41.2 °F 35.0 °F 7.5 °F 25% 30.18 in 10.0 mi SE 10.4 mph - N/A   Clear
9:35 AM 43.3 °F 36.8 °F 7.9 °F 23% 30.18 in 10.0 mi SE 12.7 mph - N/A   Clear
9:55 AM 45.9 °F 40.4 °F 7.7 °F 21% 30.17 in 10.0 mi SSE 11.5 mph - N/A   Clear
10:15 AM 48.2 °F - 7.3 °F 19% 30.17 in 10.0 mi SSE 11.5 mph - N/A   Clear
10:35 AM 49.1 °F - 7.2 °F 18% 30.17 in 10.0 mi SSE 13.8 mph 18.4 mph N/A   Clear
10:55 AM 50.5 °F - 7.3 °F 17% 30.16 in 10.0 mi SE 15.0 mph - N/A   Clear
11:15 AM 50.4 °F - 6.8 °F 17% 30.15 in 10.0 mi ESE 13.8 mph 21.9 mph N/A   Clear
11:35 AM 50.4 °F - 7.3 °F 18% 30.14 in 10.0 mi SE 16.1 mph - N/A   Clear
11:55 AM 54.3 °F - 7.5 °F 15% 30.14 in 10.0 mi SE 17.3 mph - N/A   Clear
12:15 PM 57.4 °F - 8.6 °F 14% 30.12 in 10.0 mi ESE 13.8 mph 21.9 mph N/A   Clear
12:35 PM 59.2 °F - 9.3 °F 14% 30.12 in 10.0 mi SE 13.8 mph 19.6 mph N/A   Scattered Clouds
12:55 PM 60.4 °F - 9.5 °F 13% 30.10 in 10.0 mi SE 15.0 mph 20.7 mph N/A   Scattered Clouds
1:15 PM 60.1 °F - 9.1 °F 13% 30.10 in 10.0 mi SSE 13.8 mph 20.7 mph N/A   Clear
1:35 PM 60.1 °F - 8.6 °F 13% 30.09 in 10.0 mi SE 15.0 mph 21.9 mph N/A   Clear
1:55 PM 59.2 °F - 8.2 °F 13% 30.08 in 10.0 mi SE 12.7 mph 21.9 mph N/A   Clear
2:15 PM 60.4 °F - 8.2 °F 13% 30.07 in 10.0 mi SE 13.8 mph 21.9 mph N/A   Clear
2:35 PM 62.8 °F - 8.2 °F 12% 30.07 in 10.0 mi SE 13.8 mph 24.2 mph N/A   Clear
2:55 PM 61.2 °F - 7.7 °F 12% 30.06 in 10.0 mi SE 11.5 mph 20.7 mph N/A   Clear
3:15 PM 61.9 °F - 7.7 °F 12% 30.05 in 10.0 mi SE 12.7 mph 18.4 mph N/A   Clear
3:35 PM 62.1 °F - 7.9 °F 12% 30.04 in 10.0 mi SE 12.7 mph - N/A   Scattered Clouds
3:55 PM 62.2 °F - 7.7 °F 12% 30.04 in 10.0 mi SE 10.4 mph 16.1 mph N/A   Clear
4:15 PM 63.9 °F - 7.7 °F 11% 30.03 in 10.0 mi SE 9.2 mph - N/A   Clear
4:35 PM 63.5 °F - 7.3 °F 11% 30.02 in 10.0 mi ESE 4.6 mph - N/A   Clear
4:55 PM 64.4 °F - 6.8 °F 10% 30.01 in 10.0 mi West 10.4 mph 18.4 mph N/A   Clear
5:15 PM 65.1 °F - 5.9 °F 10% 30.01 in 10.0 mi West 17.3 mph 26.5 mph N/A   Clear
5:35 PM 64.8 °F - 2.3 °F 8% 30.02 in 10.0 mi West 12.7 mph 21.9 mph N/A   Clear
5:55 PM 64.4 °F - 2.7 °F 9% 30.02 in 10.0 mi West 12.7 mph 19.6 mph N/A   Clear
6:15 PM 63.5 °F - 3.4 °F 9% 30.03 in 10.0 mi WSW 10.4 mph 19.6 mph N/A   Clear
6:35 PM 62.6 °F - 4.8 °F 10% 30.03 in 10.0 mi West 18.4 mph 25.3 mph N/A   Clear
6:55 PM 61.3 °F - 3.4 °F 10% 30.03 in 10.0 mi WSW 12.7 mph 18.4 mph N/A   Clear
7:15 PM 59.4 °F - 3.0 °F 10% 30.04 in 10.0 mi West 6.9 mph - N/A   Clear
7:35 PM 57.2 °F - 2.8 °F 11% 30.04 in 10.0 mi West 5.8 mph - N/A   Clear
7:55 PM 55.0 °F - 3.0 °F 12% 30.04 in 10.0 mi WSW 4.6 mph - N/A   Clear
8:15 PM 52.2 °F - 2.7 °F 13% 30.05 in 10.0 mi WSW 5.8 mph - N/A   Clear
8:35 PM 54.0 °F - 3.6 °F 13% 30.06 in 10.0 mi SW 3.5 mph - N/A   Clear
8:55 PM 51.4 °F - 3.0 °F 14% 30.06 in 10.0 mi WSW 3.5 mph - N/A   Clear
9:15 PM 48.9 °F - 3.6 °F 16% 30.06 in 10.0 mi WSW 4.6 mph - N/A   Clear
9:35 PM 44.8 °F 41.6 °F 3.4 °F 18% 30.07 in 10.0 mi SW 5.8 mph - N/A   Clear
9:55 PM 41.5 °F 38.6 °F 3.6 °F 21% 30.07 in 10.0 mi SW 4.6 mph - N/A   Clear
10:15 PM 43.0 °F 39.5 °F 4.1 °F 20% 30.08 in 10.0 mi SW 5.8 mph - N/A   Clear
10:35 PM 41.9 °F - 4.5 °F 21% 30.08 in 10.0 mi Calm Calm - N/A   Clear
10:55 PM 43.2 °F - 4.8 °F 21% 30.08 in 10.0 mi Calm Calm - N/A   Clear
11:15 PM 40.5 °F - 4.5 °F 22% 30.09 in 10.0 mi Calm Calm - N/A   Clear
11:35 PM 37.2 °F - 3.6 °F 24% 30.09 in 10.0 mi Calm Calm - N/A   Clear
11:55 PM 42.8 °F 41.1 °F 5.5 °F 22% 30.09 in 10.0 mi South 3.5 mph - N/A   Clear